7 * 24
多渠道服务支持
STARLINK-35042是美国SpaceX公司星链(Starlink)互联网卫星星座的一员,于2025年9月3日发射入轨。星链星座旨在打造全球覆盖的低轨宽带网络,为偏远地区提供高速互联网接入。该卫星采用平板设计,搭载氪工质霍尔推进器,具备自主避撞能力,寿命末期可主动离轨并在大气层烧毁,减少空间碎片影响,服务全球互联互通。
美国
(US)
| 数据来源 | 国际轨道数据 |
| 星历时间: | 2026-09-03T10:50:38+0800 1天前 查看轨道信息 |
| 半长轴: | 6840.807km |
| 偏心率: | 0.0001374 |
| 轨道倾角: | 53.159° |
| 近地点辐角 | 62.250° |
| 升交点赤经 | 150.864° |
| 平近点角 | 297.864° |
| 近地点: | 461.73km |
| 远地点: | 463.61km |
| 周期: | 93.847分钟 |
| 每日圈数: | 15.344112 |
| 事件ID | 空间交会对象 | 最接近时刻(TCA) | 交会距离 | 交会风险概率(CRP) | 交会风险指数(CRI) | 操作 |
|---|---|---|---|---|---|---|
| CDM_260906-031706-309506-548121 |
STARLINK-32907
(63095)
STARLINK-35042
(65481) | 2026-09-06T 03:17:47+0000 |
0.917 km
远距离 | 3.108124E-5 中风险 | 0.65 | |
| CDM_260907-025806-002406-548121 |
STARLINK-31990
(60024)
STARLINK-35042
(65481) | 2026-09-07T 02:58:42+0000 |
1.054 km
极远距离 | 1.976421E-5 中风险 | 0.61 | |
| CDM_260907-043206-002406-548121 |
STARLINK-31990
(60024)
STARLINK-35042
(65481) | 2026-09-07T 04:32:30+0000 |
1.325 km
极远距离 | 8.93528E-6 低风险 | 0.54 | |
| CDM_260905-214906-309506-548121 |
STARLINK-32907
(63095)
STARLINK-35042
(65481) | 2026-09-05T 21:49:29+0000 |
1.704 km
极远距离 | 3.855616E-6 低风险 | 0.47 | |
| CDM_260906-130206-048506-548121 |
TOMORROW-S2
(60485)
STARLINK-35042
(65481) | 2026-09-06T 13:02:17+0000 |
2.327 km
极远距离 | 2.002356E-6 低风险 | 0.41 | |
| CDM_260906-031005-264006-548121 |
STARLINK-3977
(52640)
STARLINK-35042
(65481) | 2026-09-06T 03:10:15+0000 |
2.703 km
极远距离 | 5.716971E-7 极低风险 | 0.3 |